This is the latest recevied weather packets stored in our database for station/object W2TAO. If no packets are shown the sender has not sent any weather packets the latest 10 day(s).
| Time | Temp. | Humidity | Pressure | Rain* | Wind** | Luminosity | Snow |
|---|---|---|---|---|---|---|---|
| 1777610033 | 5.56° C | 81% | 1012.5 hPa | 0 mm | - | 0 W/m² | - |
| 1777609729 | 6.11° C | 78% | 1012.6 hPa | 0 mm | - | 0 W/m² | - |
| 1777609426 | 6.11° C | 77% | 1012.5 hPa | 0 mm | - | 0 W/m² | - |
| 1777609124 | 6.11° C | 80% | 1012.4 hPa | 0 mm | - | 0 W/m² | - |
| 1777608821 | 6.67° C | 80% | 1012.5 hPa | 0 mm | - | 0 W/m² | - |
| 1777608518 | 6.67° C | 78% | 1012.6 hPa | 0 mm | - | 0 W/m² | - |
| 1777608216 | 6.67° C | 79% | 1012.7 hPa | 0 mm | - | 0 W/m² | - |
| 1777607913 | 6.67° C | 77% | 1012.6 hPa | 0 mm | - | 0 W/m² | - |
| 1777607608 | 6.67° C | 80% | 1012.5 hPa | 0 mm | - | 0 W/m² | - |
| 1777607305 | 6.67° C | 79% | 1012.5 hPa | 0 mm | - | 0 W/m² | - |
| 1777607001 | 6.67° C | 80% | 1012.6 hPa | 0 mm | - | 0 W/m² | - |
| 1777606697 | 6.67° C | 80% | 1012.5 hPa | 0 mm | - | 0 W/m² | - |
| 1777606393 | 6.67° C | 79% | 1012.3 hPa | 0 mm | - | 0 W/m² | - |
| 1777606088 | 6.67° C | 78% | 1012.4 hPa | 0 mm | - | 0 W/m² | - |
| 1777605784 | 7.22° C | 79% | 1012.4 hPa | 0 mm | - | 0 W/m² | - |
| 1777605483 | 7.22° C | 78% | 1012.6 hPa | 0 mm | - | 0 W/m² | - |
| 1777605180 | 7.22° C | 80% | 1012.5 hPa | 0 mm | - | 0 W/m² | - |
| 1777604875 | 6.67° C | 84% | 1012.2 hPa | 0 mm | - | 0 W/m² | - |
| 1777604571 | 6.67° C | 83% | 1012.2 hPa | 0 mm | - | 0 W/m² | - |
| 1777604267 | 7.22° C | 83% | 1012.1 hPa | 0 mm | - | 0 W/m² | - |
| 1777603963 | 7.22° C | 85% | 1012.2 hPa | 0 mm | - | 0 W/m² | - |
| 1777603660 | 7.22° C | 85% | 1012.3 hPa | 0 mm | - | 0 W/m² | - |
| 1777603356 | 7.22° C | 81% | 1012.4 hPa | 0 mm | - | 0 W/m² | - |
| 1777603052 | 7.22° C | 83% | 1012.3 hPa | 0 mm | - | 0 W/m² | - |
| 1777602747 | 7.22° C | 80% | 1012.4 hPa | 0 mm | - | 0 W/m² | - |
* Rain latest hour (hover to see other rain measurements)
** Current wind speed in m/s (hover to see current wind gust speed)